Regional Weather Roundup
Issued by NWS

Home | Current Version | Previous Version | Text Only | Print | Product List | Glossary Off
Versions: 1 2 3 4 5 6 7 8 9 10 11 12 13 14 15 16 17 18 19 20 21 22 23 24 25 26 27 28 29 30 31 32 33 34 35 36 37 38 39 40 41 42 43 44 45 46 47 48 49 50

000
ASUS43 KFSD 232110
RWRSD

WEATHER ROUNDUP FOR SOUTH DAKOTA
NATIONAL WEATHER SERVICE SIOUX FALLS SD
400 PM CDT WED AUG 23 2017

NOTE: "FAIR" INDICATES FEW OR NO CLOUDS BELOW 12,000 FEET WITH NO
SIGNIFICANT WEATHER AND/OR OBSTRUCTIONS TO VISIBILITY.


SDZ001>005-009-010-012>017-232200-
NORTHWEST AND NORTH CENTRAL SOUTH DAKOTA

CITY           SKY/WX    TMP DP  RH WIND       PRES   REMARKS
BUFFALO          N/A     88  44  21 CALM      29.92F
FAITH            N/A     84  59  42 SE8       29.96F
MOBRIDGE       SUNNY     83  61  47 MISG      29.93F
$$

SDZ012>016-024>037-041>051-057-063-072>074-232200-
SOUTHWEST AND SOUTH CENTRAL SOUTH DAKOTA

CITY           SKY/WX    TMP DP  RH WIND       PRES   REMARKS
RAPID CTY ARPT SUNNY     88  49  25 VRB5      29.98F
PIERRE         SUNNY     84  59  42 VRB3      29.91F
CUSTER         MOSUNNY   81  50  33 E18G26    30.13F
ELLSWORTH AFB  SUNNY     88  49  26 E5        29.98F
PHILIP         SUNNY     92  54  27 E7        29.91F
PINE RIDGE     SUNNY     92  52  25 SW8       29.97F
SPEARFISH      LGT RAIN  88  48  25 E10       30.03F
WINNER         FAIR      88  63  43 SW14      29.94F
$$

SDZ004>011-016>023-039-040-232200-
NORTHEAST SOUTH DAKOTA

CITY           SKY/WX    TMP DP  RH WIND       PRES   REMARKS
ABERDEEN       SUNNY     81  55  40 SE10      29.98F
WATERTOWN      MOSUNNY   75  55  49 SE13      30.03F
BROOKINGS      MOSUNNY   75  55  50 S10       30.04F
SISSETON         N/A     77  56  48 SE12      30.00F
$$

SDZ017-020-022-023-036>040-048>070-232200-
SOUTHEAST SOUTH DAKOTA

CITY           SKY/WX    TMP DP  RH WIND       PRES   REMARKS
SIOUX FALLS    PTSUNNY   79  60  52 S12       30.03F
HURON          MOSUNNY   80  59  48 S13       29.97F
CHAMBERLAIN    MOSUNNY   88  64  45 S10       29.93F
MITCHELL       PTSUNNY   81  60  48 S15G21    29.98F
YANKTON        SUNNY     79  59  50 S18       30.01F
$$

ABBREVIATIONS USED IN REMARKS
   TC - TEMPERATURE IN CELSIUS
  WCI - WIND CHILL INDEX
   HX - HEAT INDEX
  VSB - VISIBILITY




USA.gov is the U.S. government's official web portal to all federal, state and local government web resources and services.